Location: Bletchingley
(51.2333°N, 0.1000°W)
Time: 14:33:55
(UTC+00:00)

Cosmos 2266 Rocket - Pass Details

Date: 21 January 2021
Orbit: 934 x 1008 km, 82.9° (Epoch: 05 March)

Event Time Altitude Azimuth Distance (km) Brightness Sun altitude
Rises 06:13:54 0° 353° (N) 3,632 6.8 -15.0°
Reaches altitude 10° 06:16:38 10° 2° (N) 2,674 6.2 -14.6°
Maximum altitude 06:22:14 37° 69° (ENE) 1,425 5.4 -13.7°
Drops below altitude 10° 06:27:46 10° 136° (SE) 2,641 7.3 -12.9°
Sets 06:30:26 0° 144° (SE) 3,581 7.9 -12.5°
